When you browse on this site, cookies collect data to enhance your experience and personalize the content and advertising you see.
Visit our Privacy Policy to learn more. By continuing to use the site, you agree to this use of cookies and data.
  • In Czech Republic
  • List of Countries
  • For 7 days
  • Water Temperature
  • Weather Map
  • Weather Widgets
  • user-avatar
    Login

    Hourly Weather Zhatay

    Today, 31 May, Sunday

    Time Temperature Precipitation Wind Pressure Humidity
    00:00 +4°C° 0 mm 1 mps 750 mmHg 48%
    01:00 +3°C° 0 mm 1 mps 749 mmHg 50%
    02:00 +1°C° 0 mm 2 mps 749 mmHg 53%
    03:00 +2°C° 0 mm 1 mps 750 mmHg 55%
    04:00 +2°C° 0 mm 2 mps 750 mmHg 51%
    05:00 +4°C° 0 mm 2 mps 750 mmHg 48%
    06:00 +5°C° 0 mm 2 mps 750 mmHg 44%
    07:00 +8°C° 0 mm 1 mps 749 mmHg 40%
    08:00 +11°C° 0 mm 1 mps 749 mmHg 36%
    09:00 +13°C° 0 mm 1 mps 749 mmHg 33%
    10:00 +13°C° 0 mm 2 mps 749 mmHg 34%
    11:00 +14°C° 0 mm 2 mps 748 mmHg 34%
    12:00 +14°C° 0 mm 2 mps 748 mmHg 34%
    13:00 +15°C° 0 mm 2 mps 748 mmHg 34%
    14:00 +15°C° 0 mm 2 mps 747 mmHg 33%
    15:00 +15°C° 0 mm 2 mps 748 mmHg 33%
    16:00 +14°C° 0 mm 3 mps 748 mmHg 33%
    17:00 +14°C° 0 mm 3 mps 747 mmHg 33%
    18:00 +14°C° 0 mm 3 mps 747 mmHg 33%
    19:00 +13°C° 0 mm 2 mps 748 mmHg 40%
    20:00 +11°C° 0 mm 1 mps 748 mmHg 47%
    21:00 +8°C° 0 mm 0 mps 748 mmHg 55%
    22:00 +7°C° 0 mm 0 mps 748 mmHg 57%
    23:00 +6°C° 0 mm 0 mps 748 mmHg 59%

    Tomorrow, 1 June, Monday

    Time Temperature Precipitation Wind Pressure Humidity
    00:00 +6°C° 0 mm 1 mps 748 mmHg 61%
    01:00 +6°C° 0 mm 1 mps 748 mmHg 63%
    02:00 +4°C° 0 mm 0 mps 748 mmHg 66%
    03:00 +3°C° 0 mm 0 mps 748 mmHg 68%
    04:00 +6°C° 0 mm 1 mps 749 mmHg 63%
    05:00 +8°C° 0 mm 1 mps 749 mmHg 58%
    06:00 +9°C° 0 mm 1 mps 749 mmHg 53%
    07:00 +12°C° 0 mm 1 mps 749 mmHg 48%
    08:00 +14°C° 0 mm 1 mps 749 mmHg 42%
    09:00 +16°C° 0 mm 2 mps 748 mmHg 36%
    10:00 +17°C° 0 mm 2 mps 748 mmHg 33%
    11:00 +18°C° 0 mm 2 mps 748 mmHg 30%
    12:00 +19°C° 0 mm 2 mps 748 mmHg 26%
    13:00 +19°C° 0 mm 2 mps 747 mmHg 26%
    14:00 +19°C° 0 mm 2 mps 747 mmHg 25%
    15:00 +20°C° 0 mm 2 mps 747 mmHg 24%
    16:00 +20°C° 0 mm 2 mps 747 mmHg 25%
    17:00 +20°C° 0 mm 2 mps 747 mmHg 25%
    18:00 +20°C° 0 mm 2 mps 747 mmHg 25%
    19:00 +18°C° 0 mm 2 mps 747 mmHg 32%
    20:00 +16°C° 0 mm 2 mps 747 mmHg 38%
    21:00 +14°C° 0 mm 2 mps 747 mmHg 45%
    22:00 +12°C° 0 mm 2 mps 747 mmHg 46%
    23:00 +10°C° 0 mm 2 mps 747 mmHg 48%

    Day after tomorrow, 2 June, Tuesday

    Time Temperature Precipitation Wind Pressure Humidity
    00:00 +9°C° 0 mm 2 mps 747 mmHg 50%
    01:00 +9°C° 0 mm 1 mps 747 mmHg 51%
    02:00 +8°C° 0 mm 1 mps 747 mmHg 53%
    03:00 +8°C° 0 mm 1 mps 747 mmHg 55%
    04:00 +9°C° 0 mm 1 mps 747 mmHg 52%
    05:00 +11°C° 0 mm 1 mps 748 mmHg 49%
    06:00 +13°C° 0 mm 1 mps 748 mmHg 45%
    07:00 +14°C° 0 mm 0 mps 748 mmHg 41%
    08:00 +16°C° 0 mm 0 mps 747 mmHg 36%
    09:00 +19°C° 0 mm 0 mps 747 mmHg 31%
    10:00 +21°C° 0 mm 1 mps 747 mmHg 29%
    11:00 +22°C° 0 mm 1 mps 747 mmHg 26%
    12:00 +23°C° 0 mm 1 mps 746 mmHg 23%
    13:00 +23°C° 0 mm 1 mps 746 mmHg 23%
    14:00 +24°C° 0 mm 1 mps 746 mmHg 22%
    15:00 +24°C° 0 mm 1 mps 745 mmHg 21%
    16:00 +24°C° 0 mm 1 mps 745 mmHg 22%
    17:00 +23°C° 0 mm 1 mps 745 mmHg 22%
    18:00 +23°C° 0 mm 1 mps 745 mmHg 23%
    19:00 +21°C° 0 mm 1 mps 745 mmHg 29%
    20:00 +19°C° 0 mm 1 mps 745 mmHg 36%
    21:00 +16°C° 0 mm 1 mps 745 mmHg 43%
    22:00 +14°C° 0 mm 1 mps 746 mmHg 45%
    23:00 +13°C° 0 mm 1 mps 746 mmHg 47%

    3 June, Wednesday

    Time Temperature Precipitation Wind Pressure Humidity
    00:00 +12°C° 0 mm 1 mps 746 mmHg 49%
    01:00 +11°C° 0 mm 1 mps 746 mmHg 51%
    02:00 +11°C° 0 mm 1 mps 746 mmHg 53%
    03:00 +10°C° 0 mm 1 mps 746 mmHg 55%
    04:00 +11°C° 0 mm 0 mps 747 mmHg 52%
    05:00 +12°C° 0 mm 0 mps 747 mmHg 49%
    06:00 +14°C° 0 mm 0 mps 747 mmHg 47%
    07:00 +16°C° 0 mm 0 mps 747 mmHg 42%
    08:00 +20°C° 0 mm 1 mps 747 mmHg 37%
    09:00 +23°C° 0 mm 1 mps 747 mmHg 32%
    10:00 +23°C° 0 mm 1 mps 747 mmHg 29%
    11:00 +24°C° 0 mm 1 mps 747 mmHg 26%
    12:00 +25°C° 0 mm 2 mps 746 mmHg 23%
    13:00 +25°C° 0 mm 2 mps 746 mmHg 22%
    14:00 +25°C° 0 mm 2 mps 746 mmHg 22%
    15:00 +25°C° 0 mm 2 mps 746 mmHg 22%
    16:00 +25°C° 0 mm 2 mps 746 mmHg 23%
    17:00 +24°C° 0 mm 2 mps 746 mmHg 24%
    18:00 +24°C° 0 mm 2 mps 746 mmHg 25%
    19:00 +21°C° 0 mm 2 mps 746 mmHg 32%
    20:00 +20°C° 0 mm 1 mps 746 mmHg 38%
    21:00 +18°C° 0 mm 1 mps 746 mmHg 44%
    22:00 +16°C° 0 mm 1 mps 746 mmHg 48%
    23:00 +14°C° 0 mm 1 mps 746 mmHg 51%

    4 June, Thursday

    Time Temperature Precipitation Wind Pressure Humidity
    00:00 +13°C° 0 mm 1 mps 747 mmHg 55%
    01:00 +12°C° 0 mm 1 mps 747 mmHg 57%
    02:00 +11°C° 0 mm 1 mps 747 mmHg 60%
    03:00 +11°C° 0 mm 1 mps 747 mmHg 62%
    04:00 +11°C° 0 mm 0 mps 747 mmHg 59%
    05:00 +13°C° 0 mm 0 mps 747 mmHg 55%
    06:00 +14°C° 0 mm 0 mps 747 mmHg 52%
    07:00 +16°C° 0 mm 0 mps 747 mmHg 46%
    08:00 +20°C° 0 mm 1 mps 747 mmHg 41%
    09:00 +22°C° 0 mm 1 mps 747 mmHg 35%
    10:00 +23°C° 0 mm 2 mps 747 mmHg 33%
    11:00 +24°C° 0 mm 2 mps 747 mmHg 30%
    12:00 +24°C° 0 mm 3 mps 747 mmHg 27%
    13:00 +24°C° 0 mm 3 mps 747 mmHg 28%
    14:00 +23°C° 0 mm 4 mps 747 mmHg 28%
    15:00 +23°C° 0 mm 4 mps 747 mmHg 29%
    16:00 +21°C° 0 mm 4 mps 747 mmHg 36%
    17:00 +20°C° 0 mm 4 mps 747 mmHg 43%
    18:00 +17°C° 0 mm 5 mps 747 mmHg 51%
    19:00 +17°C° 0 mm 4 mps 747 mmHg 55%
    20:00 +16°C° 0 mm 3 mps 747 mmHg 59%
    21:00 +15°C° 0 mm 2 mps 748 mmHg 63%
    22:00 +14°C° 0 mm 2 mps 748 mmHg 66%
    23:00 +14°C° 0 mm 2 mps 748 mmHg 70%

    5 June, Friday

    Time Temperature Precipitation Wind Pressure Humidity
    00:00 +13°C° 0 mm 1 mps 748 mmHg 73%
    01:00 +13°C° 0 mm 2 mps 748 mmHg 75%
    02:00 +13°C° 0 mm 2 mps 748 mmHg 77%
    03:00 +13°C° 0 mm 2 mps 748 mmHg 80%
    04:00 +13°C° 0.2 mm 2 mps 748 mmHg 83%
    05:00 +12°C° 0.2 mm 3 mps 748 mmHg 85%
    06:00 +12°C° 0.2 mm 3 mps 748 mmHg 88%
    07:00 +13°C° 0.1 mm 3 mps 748 mmHg 86%
    08:00 +13°C° 0.1 mm 3 mps 748 mmHg 83%
    09:00 +14°C° 0.1 mm 3 mps 748 mmHg 80%
    10:00 +16°C° 0.2 mm 3 mps 748 mmHg 72%
    11:00 +18°C° 0.2 mm 2 mps 748 mmHg 63%
    12:00 +20°C° 0.2 mm 2 mps 747 mmHg 55%
    13:00 +19°C° 0.5 mm 2 mps 747 mmHg 60%
    14:00 +18°C° 0.5 mm 2 mps 747 mmHg 65%
    15:00 +17°C° 0.5 mm 3 mps 747 mmHg 71%
    16:00 +18°C° 0.2 mm 3 mps 747 mmHg 66%
    17:00 +18°C° 0.2 mm 3 mps 747 mmHg 62%
    18:00 +19°C° 0.2 mm 3 mps 747 mmHg 57%
    19:00 +18°C° 0.1 mm 3 mps 747 mmHg 62%
    20:00 +16°C° 0.1 mm 2 mps 746 mmHg 67%
    21:00 +15°C° 0.1 mm 2 mps 746 mmHg 73%
    22:00 +14°C° 0 mm 2 mps 746 mmHg 75%
    23:00 +13°C° 0 mm 1 mps 746 mmHg 77%
    Show more